Погода в Графском

Украина / Донецкая область     47°40′32″N   37°24′34″E
темп.,
°C
ветер,
м/с
пор.,
м/с
влажн.,
%
обл.,
%
осадки,
мм/ч
давл.,
гПа
погр.,
м
12 апреля, пн
пн1200:00+9всв5985100 0.0 1021632
03:00+9всв3689100 0.1 1021280
06:00+8с2292100 0.0 102044
09:00+10всв1289100 0.5 1020173
12:00+13ююв2275100 0.1 1020737
15:00+15юв2266100 0.1 10201119
18:00+11ю4687100 0.9 1021296
21:00+10ю2488100 0.9 1022239
13 апреля, вт
вт1300:00+9ююз239093 0.0 1022158
03:00+9юз2588100 0.0 1022218
06:00+8юз128699 0.0 102258
09:00+9юз1181100 0.0 1022142
12:00+12ююв236997 0.0 1022766
15:00+14юв336297 0.0 10211175
18:00+12ююв4772100 0.0 1021389
21:00+10ююв3678100 0.0 1022266
14 апреля, ср
ср1400:00+9ююз2381100 0.0 1021174
03:00+9юз118482 0.0 102015
06:00+7з119099 0.0 101910
09:00+12юз116899 0.0 1019395
12:00+15вюв125891 0.0 1018900
15:00+16всв115588 0.0 10171180
18:00+15юз1160100 0.5 1016114
21:00+12зюз3371100 0.6 101649
15 апреля, чт
чт1500:00+11зсз2378100 0.1 101558
03:00+11зюз2381100 0.1 101591
06:00+10зюз2386100 0.0 1015103
09:00+13зюз2366100 0.0 1015485
12:00+16ююз3448100 0.0 10141485
15:00+17ююз554589 0.0 10132040
18:00+14ю5556100 0.0 1014896
21:00+10ююз367598 0.0 1014226
16 апреля, пт
пт1600:00+9ююз2490100 0.0 1014136
03:00+8ю359070 0.0 1014132
06:00+8ююв4791100 0.0 1013261
09:00+10ююз6781100 0.1 1014719
12:00+11ю6765100 0.3 10141339
15:00+9ююз687695 0.5 1015739
18:00+10ююз5876100 0.5 1015901
21:00+8ююз598668 0.5 1015471